Simultaneous Nadir Overpasses (SNOs) Predictions

Prediction of SNOs between GOES-17 and AQUA Satellite Orbit:

Table of predicted SNOs for the next 14.0 days since TLE Epoch: 1/29/2021
Index Date Time (GOES-17) GOES-17 Lat,Lon AQUA Lat,Lon Distance(km) Time Diff (sec)
1 01/29/2021 22:30:18 0.00,-137.22 0.82,-133.49 424.97 80
2 01/30/2021 10:51:33 -0.00,-137.23 0.31,-138.64 160.48 80
3 02/01/2021 10:36:43 -0.00,-137.24 -0.35,-135.69 176.74 80
4 02/01/2021 22:58:06 0.00,-137.24 -0.78,-140.88 414.05 80
5 02/03/2021 22:45:56 0.00,-137.24 -0.17,-137.92 77.58 80
6 02/05/2021 22:36:26 0.01,-137.24 0.51,-134.97 258.12 80
7 02/06/2021 10:57:41 -0.01,-137.24 0.58,-140.13 327.80 80
8 02/08/2021 10:42:50 -0.02,-137.23 -0.03,-137.17 6.78 80
9 02/10/2021 10:30:39 -0.02,-137.22 -0.65,-134.21 341.01 80
10 02/10/2021 22:52:03 0.02,-137.20 -0.45,-139.40 250.56 80
